KRUPKA Weather Reports


time (UTC)temp
C
wind
direction
speed
KPH
gust
KPH
rain 1hr
cm
rain 24hr
cm
rain mn
cm
humidity
%
barometer
mb
20260507070005 8 92 0.0 0.0 0.00 0.00 0.00 91
20260507065503 8 71 0.0 0.0 0.00 0.00 0.00 91
20260507065004 8 333 0.0 3.2 0.00 0.00 0.00 91
20260507064511 8 342 0.0 3.2 0.00 0.00 0.00 91
20260507064003 8 279 0.0 3.2 0.00 0.00 0.00 91
20260507063508 8 347 0.0 3.2 0.00 0.00 0.00 91
20260507063003 8 352 3.2 6.4 0.00 0.00 0.00 91
20260507062503 8 38 3.2 6.4 0.00 0.00 0.00 91
20260507062005 8 4 0.0 0.0 0.00 0.00 0.00 91
20260507061504 7 358 3.2 6.4 0.00 0.00 0.00 91
20260507061004 7 332 3.2 11.3 0.00 0.00 0.00 91
20260507060503 7 12 3.2 6.4 0.00 0.00 0.00 91
20260507060004 7 349 3.2 11.3 0.00 0.00 0.00 91
20260507055508 7 3 3.2 6.4 0.00 0.00 0.00 91
20260507055004 7 353 6.4 11.3 0.00 0.00 0.00 91
20260507054503 7 13 3.2 11.3 0.00 0.00 0.00 91
20260507054003 7 16 3.2 11.3 0.00 0.00 0.00 91
20260507053504 7 13 6.4 6.4 0.00 0.00 0.00 91
20260507053003 7 26 6.4 11.3 0.00 0.00 0.00 91
20260507052504 7 39 3.2 6.4 0.00 0.00 0.00 91
20260507052005 7 17 3.2 3.2 0.00 0.00 0.00 91
20260507051504 7 13 0.0 3.2 0.00 0.00 0.00 91
20260507051003 7 359 0.0 0.0 0.00 0.00 0.00 90
20260507050503 7 354 0.0 0.0 0.00 0.00 0.00 91
20260507050004 7 355 0.0 3.2 0.00 0.00 0.00 91
20260507045503 7 348 0.0 3.2 0.00 0.00 0.00 91
20260507045004 7 348 3.2 3.2 0.00 0.00 0.00 91
20260507044504 7 356 3.2 6.4 0.00 0.00 0.00 90
20260507044003 7 349 3.2 6.4 0.00 0.00 0.00 91
20260507043504 7 1 0.0 3.2 0.00 0.00 0.00 91
20260507043003 7 22 0.0 3.2 0.00 0.00 0.00 91
20260507042503 7 19 3.2 3.2 0.00 0.00 0.00 91
20260507042003 7 23 3.2 3.2 0.00 0.00 0.00 91
20260507041509 7 24 3.2 3.2 0.00 0.00 0.00 91
20260507041003 7 31 3.2 3.2 0.00 0.00 0.00 90
20260507040504 7 53 3.2 3.2 0.00 0.00 0.00 90
20260507040004 7 60 0.0 0.0 0.00 0.00 0.00 90
20260507035503 7 50 0.0 0.0 0.00 0.00 0.00 90
20260507035004 7 27 0.0 3.2 0.00 0.00 0.00 90
20260507034503 7 33 3.2 3.2 0.00 0.00 0.00 90
20260507034003 7 21 3.2 3.2 0.00 0.00 0.00 90
20260507033504 7 40 3.2 3.2 0.00 0.00 0.00 90
20260507033003 7 55 3.2 3.2 0.00 0.00 0.00 90
20260507032503 7 4 0.0 0.0 0.00 0.00 0.00 90
20260507032006 7 330 0.0 3.2 0.00 0.00 0.00 90
20260507031503 7 341 0.0 3.2 0.00 0.00 0.00 90
20260507031001 7 46 0.0 0.0 0.00 0.00 0.00 90
20260507030503 7 349 3.2 3.2 0.00 0.00 0.00 90
20260507030003 7 29 3.2 3.2 0.00 0.00 0.00 90
20260507025503 7 15 3.2 3.2 0.00 0.00 0.00 89
20260507025003 7 341 3.2 3.2 0.00 0.00 0.00 89
20260507024504 7 261 3.2 3.2 0.00 0.00 0.00 89
20260507024003 7 20 0.0 0.0 0.00 0.00 0.00 89
20260507023503 7 18 3.2 3.2 0.00 0.00 0.00 89
20260507023004 7 359 0.0 0.0 0.00 0.00 0.00 89
20260507022503 7 279 0.0 0.0 0.00 0.00 0.00 89
20260507022004 7 272 0.0 0.0 0.00 0.00 0.00 89
20260507021504 7 274 0.0 0.0 0.00 0.00 0.00 89
20260507021003 7 8 0.0 0.0 0.00 0.00 0.00 89
20260507020503 7 32 0.0 0.0 0.00 0.00 0.00 89
20260507020003 7 317 0.0 0.0 0.00 0.00 0.00 89
20260507015503 7 303 6.4 6.4 0.00 0.00 0.00 89
20260507015004 7 281 3.2 6.4 0.00 0.00 0.00 89
20260507014503 7 292 3.2 3.2 0.00 0.00 0.00 89
20260507014004 7 286 3.2 6.4 0.00 0.00 0.00 89
20260507013503 7 264 3.2 6.4 0.00 0.00 0.00 90
20260507013005 7 305 3.2 6.4 0.00 0.00 0.00 90
20260507012504 7 353 6.4 14.5 0.00 0.00 0.00 90
20260507011503 7 351 11.3 17.7 0.00 0.00 0.00 90
20260507011004 7 353 11.3 17.7 0.00 0.00 0.00 90
20260507010503 7 344 11.3 17.7 0.00 0.00 0.00 89
20260507010004 7 1 6.4 14.5 0.00 0.00 0.00 90
20260507005502 7 357 14.5 20.9 0.00 0.00 0.00 90
20260507005002 7 338 14.5 20.9 0.00 0.00 0.00 90
20260507004504 7 354 11.3 17.7 0.00 0.00 0.00 90
20260507004003 7 1 14.5 20.9 0.00 0.00 0.00 90
20260507003503 7 356 14.5 17.7 0.00 0.00 0.00 90
20260507003003 7 356 11.3 20.9 0.00 0.00 0.00 89
20260507002503 7 348 14.5 20.9 0.00 0.00 0.00 91
20260507002005 7 352 14.5 20.9 0.00 0.00 0.00 89
20260507001504 7 350 14.5 17.7 0.00 0.00 0.00 89
20260507001003 7 6 11.3 20.9 0.00 0.00 0.00 89
20260507000503 7 1 11.3 17.7 0.00 0.00 0.00 89
20260507000004 7 4 14.5 25.7 0.00 0.00 0.00 89
20260506235504 7 355 14.5 20.9 0.00 0.00 0.00 89
20260506235003 7 358 14.5 20.9 0.00 0.00 0.00 89
20260506234503 7 359 14.5 20.9 0.00 0.00 0.00 89
20260506234004 7 2 14.5 25.7 0.00 0.00 0.00 89
20260506233503 7 347 14.5 20.9 0.00 0.00 0.00 89
20260506233003 8 9 11.3 17.7 0.00 0.00 0.00 88
20260506232507 8 355 11.3 20.9 0.00 0.00 0.00 88
20260506232005 8 11 3.2 6.4 0.00 0.00 0.00 89
20260506231503 8 67 0.0 3.2 0.00 0.00 0.00 89
20260506231003 8 134 0.0 3.2 0.00 0.00 0.00 90
20260506230504 10 144 3.2 3.2 0.00 0.00 0.00 92
20260506230003 10 150 3.2 6.4 0.00 0.00 0.00 93
20260506225503 10 163 6.4 11.3 0.00 0.00 0.00 92
20260506225003 10 164 3.2 3.2 0.00 0.00 0.00 90
20260506224503 10 204 0.0 3.2 0.00 0.00 0.00 86
20260506224003 10 220 3.2 3.2 0.00 0.00 0.00 86
20260506223503 10 246 0.0 3.2 0.00 0.00 0.00 85
20260506223003 10 246 3.2 3.2 0.00 0.00 0.00 85
20260506222506 10 234 3.2 3.2 0.00 0.00 0.00 85
20260506222009 10 224 3.2 3.2 0.00 0.00 0.00 85
20260506221504 10 244 3.2 3.2 0.00 0.00 0.00 85
20260506221002 10 254 3.2 3.2 0.00 0.00 0.00 85
20260506220504 10 92 0.0 3.2 0.00 0.00 0.00 84
20260506220004 10 58 0.0 0.0 0.00 0.00 0.00 84
20260506215503 11 357 3.2 6.4 0.00 0.00 0.00 85
20260506215004 11 20 6.4 11.3 0.00 0.00 0.00 85
20260506214503 11 14 3.2 6.4 0.00 0.00 0.00 85
20260506214004 11 33 6.4 17.7 0.00 0.00 0.00 86
20260506213503 11 36 11.3 11.3 0.00 0.00 0.00 85
20260506213004 11 357 6.4 11.3 0.00 0.00 0.00 84
20260506212503 11 29 6.4 11.3 0.00 0.00 0.00 84
20260506212005 11 37 11.3 17.7 0.00 0.00 0.00 85
20260506211504 11 19 14.5 17.7 0.00 0.00 0.00 83
20260506211002 11 14 11.3 20.9 0.00 0.00 0.00 81
20260506210503 11 345 6.4 14.5 0.00 0.00 0.00 81
20260506210003 11 7 11.3 17.7 0.00 0.00 0.00 81
20260506205503 11 16 11.3 14.5 0.00 0.00 0.00 81
20260506205003 11 359 11.3 17.7 0.00 0.00 0.00 80
20260506204504 11 10 6.4 17.7 0.00 0.00 0.00 80
20260506204003 11 18 3.2 6.4 0.00 0.00 0.00 79
20260506203503 11 13 6.4 14.5 0.00 0.00 0.00 79
20260506203004 11 10 6.4 14.5 0.00 0.00 0.00 78
20260506202005 11 7 6.4 11.3 0.00 0.00 0.00 78
20260506201510 11 5 3.2 6.4 0.00 0.00 0.00 78
20260506201002 11 27 3.2 11.3 0.00 0.00 0.00 78
20260506200504 12 20 11.3 17.7 0.00 0.00 0.00 78
20260506200004 12 19 6.4 14.5 0.00 0.00 0.00 79
20260506195502 12 13 6.4 17.7 0.00 0.00 0.00 77
20260506195011 12 3 6.4 14.5 0.00 0.00 0.00 77
20260506194503 12 15 11.3 14.5 0.00 0.00 0.00 76
20260506194003 12 5 6.4 14.5 0.00 0.00 0.00 76
20260506193504 12 34 6.4 17.7 0.00 0.00 0.00 77
20260506193004 12 25 14.5 25.7 0.00 0.00 0.00 77
20260506192503 12 5 14.5 32.2 0.00 0.00 0.00 76
20260506192004 12 7 14.5 25.7 0.00 0.00 0.00 74
20260506191503 12 20 14.5 25.7 0.00 0.00 0.00 74
20260506191003 12 358 14.5 25.7 0.00 0.00 0.00 73
20260506190503 12 4 11.3 14.5 0.00 0.00 0.00 73
20260506190005 12 10 11.3 14.5 0.00 0.00 0.00 73
20260506185508 12 18 6.4 14.5 0.00 0.00 0.00 73
20260506185004 12 2 11.3 20.9 0.00 0.00 0.00 73
20260506184503 12 8 14.5 20.9 0.00 0.00 0.00 72
20260506184004 12 13 11.3 17.7 0.00 0.00 0.00 72
20260506183503 12 5 11.3 14.5 0.00 0.00 0.00 70
20260506183004 12 342 11.3 20.9 0.00 0.00 0.00 70
20260506182503 12 358 11.3 20.9 0.00 0.00 0.00 69
20260506182005 12 4 11.3 17.7 0.00 0.00 0.00 69
20260506181503 13 350 6.4 14.5 0.00 0.00 0.00 68
20260506181002 13 352 6.4 11.3 0.00 0.00 0.00 67
20260506180503 13 1 6.4 14.5 0.00 0.00 0.00 67
20260506180004 13 356 6.4 14.5 0.00 0.00 0.00 67
20260506175504 13 10 6.4 11.3 0.00 0.00 0.00 66
20260506175004 13 358 6.4 11.3 0.00 0.00 0.00 65
20260506174510 15 356 6.4 11.3 0.00 0.00 0.00 65
20260506174003 15 3 6.4 11.3 0.00 0.00 0.00 64
20260506173503 15 16 6.4 17.7 0.00 0.00 0.00 64
20260506173005 15 354 6.4 11.3 0.00 0.00 0.00 62
20260506172504 15 343 11.3 14.5 0.00 0.00 0.00 62
20260506172004 15 339 6.4 14.5 0.00 0.00 0.00 62
20260506171504 15 333 6.4 11.3 0.00 0.00 0.00 62
20260506171004 15 335 3.2 6.4 0.00 0.00 0.00 62
20260506170503 15 338 3.2 6.4 0.00 0.00 0.00 61
20260506170004 15 220 0.0 0.0 0.00 0.00 0.00 61
20260506165504 15 196 0.0 0.0 0.00 0.00 0.00 61
20260506165005 15 204 0.0 0.0 0.00 0.00 0.00 61
20260506164503 15 239 0.0 0.0 0.00 0.00 0.00 61
20260506164004 15 239 3.2 3.2 0.00 0.00 0.00 61
20260506163503 15 246 3.2 3.2 0.00 0.00 0.00 61
20260506163004 15 262 0.0 3.2 0.00 0.00 0.00 62
20260506162502 15 223 0.0 0.0 0.00 0.00 0.00 61
20260506162010 15 222 0.0 0.0 0.00 0.00 0.00 61
20260506161503 15 179 0.0 3.2 0.00 0.00 0.00 61
20260506161002 15 211 3.2 6.4 0.00 0.00 0.00 61
20260506160503 15 232 3.2 14.5 0.00 0.00 0.00 60
20260506160004 16 213 6.4 11.3 0.00 0.00 0.00 59
20260506155504 16 199 6.4 11.3 0.00 0.00 0.00 59
20260506155004 16 252 3.2 11.3 0.00 0.00 0.00 59
20260506154503 16 240 6.4 14.5 0.00 0.00 0.00 59
20260506154003 16 205 11.3 14.5 0.00 0.00 0.00 59
20260506153504 16 201 6.4 14.5 0.00 0.00 0.00 58
20260506153003 16 232 11.3 14.5 0.00 0.00 0.00 58
20260506152503 16 238 6.4 14.5 0.00 0.00 0.00 58
20260506152004 16 233 11.3 17.7 0.00 0.00 0.00 59
20260506151503 16 233 11.3 14.5 0.00 0.00 0.00 58
20260506151003 16 234 3.2 6.4 0.00 0.00 0.00 59
20260506150504 16 221 6.4 11.3 0.00 0.00 0.00 59
20260506150004 16 226 6.4 14.5 0.00 0.00 0.00 60
20260506145503 16 239 3.2 14.5 0.00 0.00 0.00 60
20260506145002 16 168 6.4 6.4 0.00 0.00 0.00 60
20260506144504 16 183 6.4 11.3 0.00 0.00 0.00 60
20260506144011 16 199 3.2 6.4 0.00 0.00 0.00 59
20260506143504 16 219 6.4 11.3 0.00 0.00 0.00 59
20260506143004 16 235 11.3 17.7 0.00 0.00 0.00 58
20260506142504 16 242 3.2 6.4 0.00 0.00 0.00 59
20260506142005 16 218 6.4 17.7 0.00 0.00 0.00 59
20260506141503 17 218 14.5 17.7 0.00 0.00 0.00 57
20260506141002 16 209 14.5 14.5 0.00 0.00 0.00 58
20260506140504 17 231 11.3 14.5 0.00 0.00 0.00 58
20260506140004 17 228 6.4 14.5 0.00 0.00 0.00 59
20260506135503 17 226 6.4 11.3 0.00 0.00 0.00 60
20260506135004 17 206 14.5 20.9 0.00 0.00 0.00 58
20260506134508 17 245 6.4 11.3 0.00 0.00 0.00 61
20260506134002 17 251 6.4 14.5 0.00 0.00 0.00 62
20260506133503 16 194 11.3 14.5 0.00 0.00 0.00 58
20260506133003 17 226 3.2 6.4 0.00 0.00 0.00 62
20260506132503 17 215 6.4 11.3 0.00 0.00 0.00 62
20260506132005 16 211 14.5 17.7 0.00 0.00 0.00 61
20260506131503 16 210 6.4 6.4 0.00 0.00 0.00 61
20260506131003 16 206 11.3 17.7 0.00 0.00 0.00 62
20260506130503 16 213 6.4 14.5 0.00 0.00 0.00 62
20260506130004 16 239 11.3 20.9 0.00 0.00 0.00 63
20260506125504 16 238 11.3 17.7 0.00 0.00 0.00 63
20260506125003 16 227 3.2 6.4 0.00 0.00 0.00 64
20260506124504 16 219 6.4 14.5 0.00 0.00 0.00 65
20260506124004 16 226 11.3 17.7 0.00 0.00 0.00 64
20260506123504 16 244 11.3 17.7 0.00 0.00 0.00 66
20260506123003 16 226 6.4 11.3 0.00 0.00 0.00 66
20260506122503 16 222 11.3 20.9 0.00 0.00 0.00 66
20260506122004 16 207 14.5 20.9 0.00 0.00 0.00 64
20260506121503 16 233 14.5 20.9 0.00 0.00 0.00 65
20260506121003 16 232 11.3 17.7 0.00 0.00 0.00 68
20260506120504 15 241 6.4 14.5 0.00 0.00 0.00 68
20260506120003 15 240 11.3 17.7 0.00 0.00 0.00 69
20260506115503 15 254 6.4 17.7 0.00 0.00 0.00 70
20260506115003 13 197 11.3 17.7 0.00 0.00 0.00 68
20260506114503 15 207 14.5 20.9 0.00 0.00 0.00 68
20260506114002 15 239 14.5 20.9 0.00 0.00 0.00 69
20260506113503 13 216 14.5 20.9 0.00 0.00 0.00 70
20260506113004 15 215 14.5 25.7 0.00 0.00 0.00 69
20260506112503 15 237 6.4 17.7 0.00 0.00 0.00 69
20260506112006 16 244 11.3 20.9 0.00 0.00 0.00 71
20260506111504 15 247 11.3 17.7 0.00 0.00 0.00 72
20260506111004 13 227 11.3 17.7 0.00 0.00 0.00 72
20260506110503 13 235 11.3 17.7 0.00 0.00 0.00 73
20260506110003 13 243 6.4 14.5 0.00 0.00 0.00 74
20260506105504 13 224 11.3 20.9 0.00 0.00 0.00 73
20260506105003 13 216 11.3 17.7 0.00 0.00 0.00 73
20260506104504 13 262 6.4 11.3 0.00 0.00 0.00 75
20260506104003 12 220 11.3 14.5 0.00 0.00 0.00 75
20260506103503 12 209 11.3 14.5 0.00 0.00 0.00 75
20260506103004 12 221 11.3 20.9 0.00 0.00 0.00 75
20260506102503 12 214 3.2 6.4 0.00 0.00 0.00 76
20260506102003 13 212 6.4 14.5 0.00 0.00 0.00 75
20260506101503 13 249 6.4 14.5 0.00 0.00 0.00 77
20260506101003 13 237 11.3 20.9 0.00 0.00 0.00 75
20260506100503 13 205 11.3 17.7 0.00 0.00 0.00 75
20260506100004 15 254 11.3 17.7 0.00 0.00 0.00 75
20260506095504 13 229 11.3 17.7 0.00 0.00 0.00 76
20260506095004 13 218 14.5 20.9 0.00 0.00 0.00 75
20260506094504 13 242 6.4 14.5 0.00 0.00 0.00 77
20260506094004 15 230 6.4 14.5 0.00 0.00 0.00 76
20260506093503 13 207 11.3 17.7 0.00 0.00 0.00 75
20260506093004 13 228 11.3 17.7 0.00 0.00 0.00 77
20260506092508 12 246 14.5 20.9 0.00 0.00 0.00 78
20260506092007 12 239 14.5 20.9 0.00 0.00 0.00 79
20260506091503 12 224 14.5 29.0 0.00 0.00 0.00 79
20260506091003 12 223 14.5 17.7 0.00 0.00 0.00 80
20260506090504 12 234 11.3 17.7 0.00 0.00 0.00 80
20260506090003 13 241 11.3 17.7 0.00 0.00 0.00 81
20260506085503 12 234 11.3 17.7 0.00 0.00 0.00 83
20260506085003 12 225 14.5 25.7 0.00 0.00 0.00 82
20260506084503 12 234 14.5 20.9 0.00 0.00 0.00 84
20260506084003 12 237 11.3 17.7 0.00 0.00 0.00 86
20260506083502 12 237 11.3 20.9 0.00 0.00 0.00 87
20260506083004 12 248 14.5 25.7 0.00 0.00 0.00 87
20260506082504 12 247 11.3 17.7 0.00 0.00 0.00 88
20260506082005 12 250 11.3 17.7 0.00 0.00 0.00 89
20260506081503 11 243 11.3 17.7 0.00 0.00 0.00 90
20260506081005 11 242 6.4 14.5 0.00 0.00 0.00 90
20260506080503 11 221 11.3 17.7 0.00 0.00 0.00 90
20260506073503 10 232 6.4 14.5 0.00 0.00 0.00 91
20260506073003 10 267 3.2 11.3 0.00 0.00 0.00 92
20260506072504 10 268 6.4 11.3 0.00 0.00 0.00 92
20260506072006 10 275 17.7 20.9 0.00 0.00 0.00 92
20260506071503 10 266 6.4 14.5 0.00 0.00 0.00 92
20260506071003 8 247 6.4 14.5 0.00 0.00 0.00 92
20260506070504 8 255 6.4 11.3 0.00 0.00 0.00 92